Radiation Dose at Monitoring Post of Fukushima Daini Nuclear Power Station
Date,Time,MP-1(microSv/h),MP-2(microSv/h),MP-3(microSv/h),MP-4(microSv/h),MP-5(microSv/h),MP-6(microSv/h),MP-7(microSv/h),Wind Direction,Wind Velocity(m/s),Rain
2021/01/15,00:00,0.176,0.157,0.254,0.240,0.238,0.139,0.085,north-northwest,5.4,No
2021/01/15,00:10,0.176,0.158,0.254,0.241,0.236,0.140,0.085,northwest,6.0,No
2021/01/15,00:20,0.177,0.158,0.253,0.241,0.238,0.140,0.085,northwest,6.7,No
2021/01/15,00:30,0.176,0.157,0.254,0.242,0.238,0.140,0.085,northwest,7.0,No
2021/01/15,00:40,0.176,0.158,0.253,0.241,0.238,0.140,0.085,northwest,6.4,No
2021/01/15,00:50,0.176,0.157,0.254,0.241,0.237,0.140,0.086,northwest,8.4,No
2021/01/15,01:00,0.176,0.158,0.253,0.241,0.237,0.140,0.085,northwest,12.2,No
2021/01/15,01:10,0.176,0.158,0.253,0.240,0.237,0.140,0.085,northwest,14.4,No
2021/01/15,01:20,0.176,0.157,0.252,0.240,0.237,0.139,0.084,northwest,13.1,No
2021/01/15,01:30,0.176,0.157,0.253,0.240,0.237,0.140,0.084,west-northwest,11.2,No
2021/01/15,01:40,0.175,0.157,0.253,0.241,0.237,0.140,0.086,northwest,9.0,No
2021/01/15,01:50,0.176,0.158,0.252,0.241,0.238,0.140,0.085,northwest,4.8,No
2021/01/15,02:00,0.177,0.157,0.254,0.241,0.237,0.140,0.085,northwest,5.9,No
2021/01/15,02:10,0.176,0.157,0.255,0.240,0.238,0.140,0.085,north-northwest,8.8,No
2021/01/15,02:20,0.175,0.158,0.254,0.241,0.237,0.140,0.085,northwest,6.7,No
2021/01/15,02:30,0.175,0.158,0.255,0.241,0.235,0.140,0.085,north,4.4,No
2021/01/15,02:40,0.176,0.157,0.254,0.241,0.237,0.140,0.084,north-northeast,3.9,No
2021/01/15,02:50,0.176,0.157,0.256,0.240,0.237,0.140,0.085,north,6.3,No
2021/01/15,03:00,0.176,0.158,0.255,0.242,0.237,0.141,0.084,north,6.0,No
2021/01/15,03:10,0.175,0.158,0.254,0.240,0.237,0.140,0.085,north,6.3,No
2021/01/15,03:20,0.176,0.156,0.253,0.242,0.237,0.141,0.085,north,6.3,No
2021/01/15,03:30,0.176,0.157,0.254,0.239,0.236,0.140,0.084,north,6.4,No
2021/01/15,03:40,0.175,0.158,0.253,0.241,0.238,0.140,0.085,north,7.1,No
2021/01/15,03:50,0.176,0.158,0.253,0.241,0.238,0.140,0.084,north,5.9,No
2021/01/15,04:00,0.176,0.158,0.255,0.240,0.236,0.140,0.084,north,7.4,No
2021/01/15,04:10,0.177,0.157,0.253,0.241,0.237,0.140,0.085,north,7.0,No
2021/01/15,04:20,0.175,0.156,0.255,0.241,0.237,0.139,0.085,north,5.9,No
2021/01/15,04:30,0.176,0.157,0.254,0.241,0.237,0.139,0.085,north,6.7,No
2021/01/15,04:40,0.176,0.158,0.254,0.241,0.237,0.140,0.084,north,5.9,No
2021/01/15,04:50,0.176,0.158,0.253,0.241,0.236,0.141,0.085,north,5.3,No
2021/01/15,05:00,0.176,0.158,0.254,0.241,0.237,0.139,0.084,north,5.3,No
2021/01/15,05:10,0.175,0.157,0.254,0.240,0.237,0.140,0.085,north,5.6,No
2021/01/15,05:20,0.176,0.158,0.254,0.242,0.237,0.139,0.084,north,4.7,No
2021/01/15,05:30,0.175,0.159,0.253,0.241,0.237,0.139,0.085,north,4.8,No
2021/01/15,05:40,0.176,0.158,0.253,0.241,0.237,0.139,0.085,north,5.6,No
2021/01/15,05:50,0.175,0.157,0.254,0.241,0.237,0.139,0.085,north,3.6,No
2021/01/15,06:00,0.176,0.156,0.253,0.240,0.238,0.141,0.085,north,2.1,No
2021/01/15,06:10,0.175,0.157,0.254,0.241,0.238,0.139,0.085,north,3.3,No
2021/01/15,06:20,0.176,0.158,0.254,0.241,0.237,0.139,0.085,north,3.7,No
2021/01/15,06:30,0.176,0.157,0.253,0.241,0.236,0.141,0.085,north,3.8,No
2021/01/15,06:40,0.177,0.157,0.253,0.241,0.237,0.139,0.086,north,3.9,No
2021/01/15,06:50,0.176,0.157,0.253,0.241,0.237,0.139,0.085,north,5.1,No
2021/01/15,07:00,0.176,0.158,0.253,0.240,0.238,0.139,0.085,north,5.4,No
2021/01/15,07:10,0.176,0.158,0.254,0.242,0.239,0.140,0.086,north,4.9,No
2021/01/15,07:20,0.174,0.157,0.254,0.240,0.236,0.140,0.086,north-northwest,5.0,No
2021/01/15,07:30,0.176,0.158,0.254,0.240,0.238,0.140,0.085,north-northwest,4.9,No
2021/01/15,07:40,0.175,0.157,0.254,0.240,0.237,0.140,0.085,north-northwest,4.4,No
2021/01/15,07:50,0.176,0.157,0.253,0.241,0.237,0.139,0.084,north-northwest,5.0,No
2021/01/15,08:00,0.176,0.158,0.253,0.241,0.237,0.139,0.085,north-northwest,4.8,No
2021/01/15,08:10,0.175,0.157,0.254,0.241,0.237,0.141,0.085,north-northwest,5.3,No
2021/01/15,08:20,0.177,0.158,0.254,0.240,0.237,0.140,0.084,northwest,4.7,No
2021/01/15,08:30,0.175,0.157,0.253,0.240,0.237,0.140,0.085,northwest,4.2,No
2021/01/15,08:40,0.175,0.156,0.254,0.241,0.238,0.140,0.085,northwest,4.1,No
2021/01/15,08:50,0.176,0.157,0.254,0.241,0.237,0.139,0.085,north-northwest,3.8,No
2021/01/15,09:00,0.175,0.157,0.252,0.239,0.237,0.140,0.085,north-northwest,2.6,No
2021/01/15,09:10,0.175,0.158,0.253,0.240,0.237,0.140,0.084,north-northwest,3.3,No
2021/01/15,09:20,0.176,0.158,0.252,0.241,0.237,0.140,0.085,northwest,2.7,No
2021/01/15,09:30,0.177,0.158,0.254,0.239,0.236,0.141,0.085,northwest,2.7,No
2021/01/15,09:40,0.176,0.157,0.252,0.240,0.238,0.140,0.084,north-northwest,1.9,No
2021/01/15,09:50,0.174,0.157,0.255,0.241,0.237,0.140,0.084,northwest,1.4,No
2021/01/15,10:00,0.176,0.157,0.252,0.240,0.237,0.140,0.085,northeast,2.2,No
2021/01/15,10:10,0.176,0.156,0.254,0.241,0.236,0.140,0.085,northeast,2.5,No
2021/01/15,10:20,0.176,0.156,0.253,0.240,0.237,0.140,0.084,northeast,2.5,No
2021/01/15,10:30,0.175,0.158,0.252,0.240,0.237,0.139,0.084,northeast,2.8,No
2021/01/15,10:40,0.176,0.156,0.253,0.240,0.236,0.139,0.084,northeast,2.6,No
2021/01/15,10:50,0.176,0.157,0.253,0.240,0.237,0.140,0.084,northeast,2.9,No
2021/01/15,11:00,0.175,0.157,0.253,0.241,0.237,0.140,0.085,north-northeast,3.5,No
2021/01/15,11:10,0.175,0.157,0.253,0.239,0.237,0.140,0.083,northeast,3.5,No
2021/01/15,11:20,0.176,0.156,0.253,0.240,0.238,0.140,0.084,northeast,2.5,No
2021/01/15,11:30,0.175,0.158,0.253,0.241,0.237,0.139,0.084,east-northeast,2.6,No
2021/01/15,11:40,0.176,0.157,0.252,0.239,0.238,0.139,0.085,northeast,3.4,No
2021/01/15,11:50,0.175,0.156,0.253,0.242,0.239,0.140,0.084,northeast,2.9,No
2021/01/15,12:00,0.175,0.157,0.255,0.241,0.238,0.140,0.085,northeast,3.0,No
2021/01/15,12:10,0.177,0.158,0.254,0.241,0.239,0.139,0.084,northeast,1.8,No
2021/01/15,12:20,0.175,0.157,0.254,0.242,0.238,0.139,0.084,east-northeast,1.4,No
2021/01/15,12:30,0.174,0.157,0.253,0.241,0.237,0.140,0.085,east-southeast,1.3,No
2021/01/15,12:40,0.177,0.158,0.252,0.239,0.238,0.139,0.085,east,1.5,No
2021/01/15,12:50,0.174,0.156,0.253,0.241,0.237,0.139,0.085,east-northeast,1.7,No
2021/01/15,13:00,0.174,0.158,0.254,0.241,0.238,0.140,0.084,east-southeast,1.1,No
2021/01/15,13:10,0.176,0.157,0.254,0.242,0.238,0.140,0.085,southeast,1.6,No
2021/01/15,13:20,0.175,0.157,0.253,0.241,0.237,0.140,0.085,southeast,1.9,No
2021/01/15,13:30,0.175,0.156,0.254,0.243,0.237,0.140,0.085,southeast,1.9,No
2021/01/15,13:40,0.176,0.158,0.254,0.241,0.237,0.139,0.085,southeast,3.2,No
2021/01/15,13:50,0.175,0.157,0.253,0.240,0.237,0.140,0.085,southeast,3.0,No
2021/01/15,14:00,0.175,0.156,0.253,0.241,0.238,0.140,0.084,southeast,3.0,No
2021/01/15,14:10,0.177,0.158,0.252,0.239,0.238,0.139,0.085,southeast,3.7,No
2021/01/15,14:20,0.175,0.157,0.250,0.241,0.237,0.140,0.084,east-southeast,4.2,No
2021/01/15,14:30,0.175,0.157,0.250,0.242,0.237,0.140,0.085,southeast,4.0,No
2021/01/15,14:40,0.176,0.157,0.252,0.241,0.238,0.139,0.084,east-southeast,4.2,No
2021/01/15,14:50,0.176,0.157,0.251,0.240,0.237,0.140,0.084,east-southeast,4.3,No
2021/01/15,15:00,0.176,0.157,0.250,0.241,0.238,0.140,0.085,southeast,2.8,No
2021/01/15,15:10,0.176,0.158,0.249,0.243,0.237,0.139,0.084,southeast,3.2,No
2021/01/15,15:20,0.175,0.157,0.248,0.241,0.238,0.140,0.084,southeast,3.0,No
2021/01/15,15:30,0.175,0.157,0.250,0.241,0.238,0.140,0.084,east-southeast,2.9,No
2021/01/15,15:40,0.175,0.157,0.248,0.241,0.238,0.140,0.084,east-southeast,3.0,No
2021/01/15,15:50,0.175,0.156,0.252,0.241,0.238,0.140,0.085,east-southeast,2.9,No
2021/01/15,16:00,0.175,0.158,0.253,0.241,0.238,0.140,0.085,southeast,2.8,No
2021/01/15,16:10,0.175,0.158,0.253,0.240,0.238,0.140,0.085,east-southeast,2.9,No
2021/01/15,16:20,0.176,0.157,0.253,0.242,0.237,0.140,0.085,east-southeast,1.4,No
2021/01/15,16:30,0.175,0.157,0.253,0.241,0.237,0.140,0.084,southeast,0.7,No
2021/01/15,16:40,0.175,0.158,0.255,0.241,0.238,0.140,0.084,southeast,0.7,No
2021/01/15,16:50,0.175,0.157,0.254,0.242,0.238,0.140,0.085,southeast,1.0,Yes
2021/01/15,17:00,0.176,0.156,0.253,0.242,0.237,0.140,0.085,southeast,1.1,No
2021/01/15,17:10,0.175,0.158,0.256,0.240,0.237,0.139,0.084,south,1.4,No
2021/01/15,17:20,0.176,0.158,0.254,0.241,0.237,0.140,0.084,south,1.3,No
2021/01/15,17:30,0.176,0.157,0.253,0.241,0.237,0.140,0.085,south,1.2,No
2021/01/15,17:40,0.175,0.157,0.253,0.240,0.239,0.140,0.085,south-southwest,1.2,No
2021/01/15,17:50,0.176,0.157,0.253,0.240,0.238,0.140,0.085,south-southwest,0.9,No
2021/01/15,18:00,0.176,0.157,0.253,0.241,0.237,0.140,0.084,west-southwest,1.8,No
2021/01/15,18:10,0.176,0.157,0.253,0.242,0.238,0.140,0.085,southwest,1.5,No
2021/01/15,18:20,0.176,0.157,0.254,0.241,0.237,0.140,0.085,southwest,1.2,No
2021/01/15,18:30,0.176,0.156,0.254,0.241,0.237,0.140,0.085,southwest,1.3,No
2021/01/15,18:40,0.176,0.158,0.254,0.242,0.238,0.140,0.085,west-southwest,1.9,No
2021/01/15,18:50,0.175,0.157,0.253,0.241,0.237,0.140,0.085,west,2.0,No
2021/01/15,19:00,0.175,0.157,0.255,0.240,0.239,0.140,0.084,west-southwest,1.6,No
2021/01/15,19:10,0.176,0.157,0.254,0.242,0.238,0.140,0.085,south-southwest,1.2,No
2021/01/15,19:20,0.175,0.158,0.254,0.241,0.237,0.140,0.085,south-southwest,1.0,Yes
2021/01/15,19:30,0.175,0.158,0.255,0.241,0.237,0.140,0.085,south-southwest,0.7,No
2021/01/15,19:40,0.175,0.157,0.254,0.240,0.237,0.140,0.085,southwest,1.6,No
2021/01/15,19:50,0.176,0.158,0.254,0.242,0.239,0.140,0.085,southwest,1.2,No
2021/01/15,20:00,0.176,0.158,0.253,0.242,0.239,0.140,0.085,west-southwest,1.4,No
2021/01/15,20:10,0.175,0.157,0.254,0.241,0.240,0.140,0.084,west,1.2,No
2021/01/15,20:20,0.177,0.158,0.255,0.241,0.238,0.139,0.085,west,1.1,Yes
2021/01/15,20:30,0.175,0.158,0.255,0.242,0.239,0.140,0.084,west,0.8,Yes
2021/01/15,20:40,0.176,0.159,0.255,0.240,0.237,0.140,0.085,west,1.2,No
2021/01/15,20:50,0.177,0.159,0.256,0.241,0.238,0.140,0.085,west-northwest,0.8,No
2021/01/15,21:00,0.175,0.157,0.254,0.242,0.238,0.140,0.086,west,1.1,No
2021/01/15,21:10,0.177,0.158,0.254,0.242,0.237,0.140,0.085,west-northwest,0.6,No
2021/01/15,21:20,0.176,0.158,0.255,0.242,0.238,0.139,0.086,west-northwest,0.7,No
2021/01/15,21:30,0.176,0.158,0.254,0.241,0.238,0.140,0.085,west-northwest,1.2,No
2021/01/15,21:40,0.176,0.159,0.255,0.241,0.239,0.141,0.085,northwest,0.7,No
2021/01/15,21:50,0.177,0.158,0.253,0.241,0.238,0.139,0.085,northwest,1.0,No
2021/01/15,22:00,0.176,0.158,0.255,0.242,0.239,0.140,0.085,northwest,0.8,No
2021/01/15,22:10,0.175,0.158,0.254,0.240,0.238,0.140,0.085,-,CALM,No
2021/01/15,22:20,0.176,0.157,0.253,0.241,0.238,0.140,0.084,-,CALM,No
2021/01/15,22:30,0.177,0.159,0.254,0.241,0.237,0.140,0.084,-,CALM,No
2021/01/15,22:40,0.176,0.159,0.255,0.241,0.238,0.140,0.086,-,CALM,No
2021/01/15,22:50,0.177,0.158,0.253,0.241,0.238,0.139,0.085,-,CALM,No
2021/01/15,23:00,0.177,0.158,0.253,0.241,0.239,0.141,0.086,west-northwest,1.5,No
2021/01/15,23:10,0.176,0.158,0.255,0.242,0.238,0.141,0.085,northwest,1.1,No
2021/01/15,23:20,0.175,0.158,0.254,0.242,0.238,0.141,0.085,north-northwest,1.0,No
2021/01/15,23:30,0.177,0.157,0.255,0.241,0.239,0.141,0.085,west-northwest,1.0,No
2021/01/15,23:40,0.176,0.158,0.254,0.242,0.238,0.140,0.085,west-northwest,1.2,No
2021/01/15,23:50,0.176,0.159,0.254,0.242,0.239,0.141,0.085,-,CALM,No
